| time (UTC) | temp F | wind direction | speed knots | gust knots | rain 1hr in | rain 24hr in | rain mn in | humidity % | barometer mb |
| 20260504232717 | 60 | 154 | 4.3 | 7.8 | 0.00 | 0.00 | 0.00 | 83 | 1013.3 |
| 20260504232218 | 60 | 342 | 1.7 | 7.8 | 0.00 | 0.00 | 0.00 | 83 | 1013.3 |
| 20260504231717 | 60 | 116 | 1.7 | 10.4 | 0.00 | 0.00 | 0.00 | 83 | 1013.3 |
| 20260504231218 | 60 | 186 | 2.6 | 10.4 | 0.00 | 0.00 | 0.00 | 82 | 1013.4 |
| 20260504230717 | 61 | 231 | 4.3 | 6.1 | 0.00 | 0.00 | 0.00 | 82 | 1013.3 |
| 20260504225718 | 61 | 169 | 2.6 | 6.1 | 0.00 | 0.00 | 0.00 | 80 | 1013.3 |
| 20260504225218 | 61 | 186 | 4.3 | 6.1 | 0.00 | 0.00 | 0.00 | 80 | 1013.4 |
| 20260504224717 | 61 | 143 | 2.6 | 7.8 | 0.00 | 0.00 | 0.00 | 80 | 1013.4 |
| 20260504223717 | 61 | 205 | 4.3 | 12.2 | 0.00 | 0.00 | 0.00 | 82 | 1013.3 |
| 20260504222217 | 60 | 172 | 2.6 | 13.0 | 0.00 | 0.00 | 0.00 | 81 | 1013.3 |
| 20260504221217 | 61 | 167 | 4.3 | 7.8 | 0.00 | 0.00 | 0.00 | 80 | 1013.4 |
| 20260504220717 | 61 | 126 | 0.0 | 6.1 | 0.00 | 0.00 | 0.00 | 80 | 1013.4 |
| 20260504220217 | 61 | 123 | 5.2 | 14.8 | 0.00 | 0.00 | 0.00 | 81 | 1013.5 |
| 20260504215717 | 61 | 98 | 13.9 | 14.8 | 0.00 | 0.00 | 0.00 | 80 | 1013.4 |
| 20260504215217 | 61 | 157 | 8.7 | 12.2 | 0.00 | 0.00 | 0.00 | 82 | 1013.4 |
| 20260504214716 | 61 | 77 | 4.3 | 8.7 | 0.00 | 0.00 | 0.00 | 81 | 1013.4 |
| 20260504214216 | 61 | 15 | 2.6 | 7.8 | 0.00 | 0.00 | 0.00 | 80 | 1013.4 |
| 20260504213717 | 61 | 145 | 2.6 | 10.4 | 0.00 | 0.00 | 0.00 | 81 | 1013.3 |
| 20260504213216 | 61 | 180 | 1.7 | 12.2 | 0.00 | 0.00 | 0.00 | 80 | 1013.5 |
| 20260504212717 | 61 | 237 | 11.3 | 13.0 | 0.00 | 0.00 | 0.00 | 80 | 1013.4 |
| 20260504212216 | 61 | 160 | 5.2 | 13.0 | 0.00 | 0.00 | 0.00 | 81 | 1013.4 |
| 20260504211717 | 61 | 211 | 7.0 | 8.7 | 0.00 | 0.00 | 0.00 | 81 | 1013.6 |
| 20260504211216 | 61 | 139 | 1.7 | 8.7 | 0.00 | 0.00 | 0.00 | 80 | 1013.4 |
| 20260504210716 | 61 | 262 | 5.2 | 12.2 | 0.00 | 0.00 | 0.00 | 80 | 1013.5 |
| 20260504210217 | 62 | 134 | 8.7 | 13.0 | 0.00 | 0.00 | 0.00 | 80 | 1013.5 |
| 20260504205716 | 62 | 161 | 4.3 | 14.8 | 0.00 | 0.00 | 0.00 | 80 | 1013.5 |
| 20260504205216 | 62 | 224 | 13.9 | 14.8 | 0.00 | 0.00 | 0.00 | 78 | 1013.7 |
| 20260504204216 | 62 | 214 | 4.3 | 13.0 | 0.00 | 0.00 | 0.00 | 79 | 1013.6 |
| 20260504203716 | 62 | 95 | 8.7 | 13.0 | 0.00 | 0.00 | 0.00 | 79 | 1013.5 |
| 20260504203216 | 62 | 145 | 2.6 | 12.2 | 0.00 | 0.00 | 0.00 | 78 | 1013.6 |
| 20260504202716 | 62 | 144 | 8.7 | 12.2 | 0.00 | 0.00 | 0.00 | 77 | 1013.4 |
| 20260504202215 | 62 | 129 | 7.0 | 19.1 | 0.00 | 0.00 | 0.00 | 79 | 1013.4 |
| 20260504201715 | 62 | 256 | 7.0 | 19.1 | 0.00 | 0.00 | 0.00 | 78 | 1013.5 |
| 20260504201215 | 62 | 215 | 4.3 | 16.5 | 0.00 | 0.00 | 0.00 | 78 | 1013.5 |
| 20260504200215 | 62 | 231 | 2.6 | 12.2 | 0.00 | 0.00 | 0.00 | 79 | 1013.4 |
| 20260504195716 | 62 | 176 | 4.3 | 12.2 | 0.00 | 0.00 | 0.00 | 79 | 1013.6 |
| 20260504195215 | 62 | 117 | 2.6 | 12.2 | 0.00 | 0.00 | 0.00 | 78 | 1013.6 |
| 20260504194716 | 63 | 153 | 4.3 | 12.2 | 0.00 | 0.00 | 0.00 | 79 | 1013.7 |
| 20260504194215 | 62 | 235 | 2.6 | 8.7 | 0.00 | 0.00 | 0.00 | 80 | 1013.6 |
| 20260504192715 | 61 | 38 | 1.7 | 12.2 | 0.00 | 0.00 | 0.00 | 80 | 1013.6 |
| 20260504192215 | 61 | 330 | 0.0 | 12.2 | 0.00 | 0.00 | 0.00 | 81 | 1013.6 |
| 20260504191716 | 61 | 166 | 4.3 | 8.7 | 0.00 | 0.00 | 0.00 | 82 | 1013.7 |
| 20260504191215 | 61 | 179 | 1.7 | 8.7 | 0.00 | 0.00 | 0.00 | 82 | 1013.7 |
| 20260504190715 | 61 | 221 | 2.6 | 8.7 | 0.00 | 0.00 | 0.00 | 82 | 1013.8 |
| 20260504190215 | 61 | 162 | 2.6 | 10.4 | 0.00 | 0.00 | 0.00 | 82 | 1013.7 |
| 20260504185714 | 61 | 134 | 7.0 | 10.4 | 0.00 | 0.00 | 0.00 | 81 | 1013.7 |
| 20260504185215 | 61 | 234 | 2.6 | 8.7 | 0.00 | 0.00 | 0.00 | 83 | 1013.6 |
| 20260504184715 | 60 | 168 | 1.7 | 8.7 | 0.00 | 0.00 | 0.00 | 83 | 1013.7 |
| 20260504184215 | 60 | 162 | 1.7 | 12.2 | 0.00 | 0.00 | 0.00 | 83 | 1013.6 |
| 20260504183714 | 60 | 122 | 5.2 | 12.2 | 0.00 | 0.00 | 0.00 | 83 | 1013.7 |
| 20260504183214 | 59 | 104 | 4.3 | 10.4 | 0.00 | 0.00 | 0.00 | 83 | 1013.7 |
| 20260504182714 | 60 | 208 | 2.6 | 6.1 | 0.00 | 0.00 | 0.00 | 83 | 1013.7 |
| 20260504181714 | 59 | 111 | 9.6 | 10.4 | 0.00 | 0.00 | 0.00 | 84 | 1013.6 |
| 20260504181215 | 59 | 155 | 1.7 | 8.7 | 0.00 | 0.00 | 0.00 | 83 | 1013.6 |
| 20260504180714 | 60 | 208 | 2.6 | 8.7 | 0.00 | 0.00 | 0.00 | 85 | 1013.6 |
| 20260504180215 | 59 | 115 | 1.7 | 8.7 | 0.00 | 0.00 | 0.00 | 85 | 1013.5 |
| 20260504175714 | 59 | 193 | 5.2 | 6.1 | 0.00 | 0.00 | 0.00 | 85 | 1013.6 |
| 20260504175214 | 59 | 198 | 1.7 | 6.1 | 0.00 | 0.00 | 0.00 | 86 | 1013.6 |
| 20260504174715 | 58 | 192 | 4.3 | 6.1 | 0.00 | 0.00 | 0.00 | 86 | 1013.6 |
| 20260504174214 | 58 | 191 | 2.6 | 6.1 | 0.00 | 0.00 | 0.00 | 86 | 1013.4 |
| 20260504173714 | 58 | 243 | 2.6 | 6.1 | 0.00 | 0.00 | 0.00 | 87 | 1013.4 |
| 20260504173214 | 58 | 153 | 1.7 | 6.1 | 0.00 | 0.00 | 0.00 | 87 | 1013.3 |
| 20260504172714 | 58 | 181 | 5.2 | 6.1 | 0.00 | 0.00 | 0.00 | 87 | 1013.3 |
| 20260504172215 | 57 | 214 | 2.6 | 6.1 | 0.00 | 0.00 | 0.00 | 88 | 1013.3 |
| 20260504171214 | 57 | 153 | 1.7 | 12.2 | 0.00 | 0.00 | 0.00 | 89 | 1013.1 |
| 20260504170714 | 57 | 160 | 2.6 | 12.2 | 0.00 | 0.00 | 0.00 | 89 | 1013.3 |
| 20260504170214 | 57 | 120 | 4.3 | 13.0 | 0.00 | 0.00 | 0.00 | 89 | 1013.2 |
| 20260504150213 | 55 | 165 | 1.7 | 10.4 | 0.00 | 0.00 | 0.00 | 93 | 1012.6 |
| 20260504141211 | 54 | 204 | 4.3 | 12.2 | 0.00 | 0.00 | 0.00 | 95 | 1012.2 |
| 20260504140711 | 54 | 152 | 1.7 | 2.6 | 0.00 | 0.00 | 0.00 | 95 | 1012.1 |
| 20260504140212 | 54 | 327 | 1.7 | 8.7 | 0.00 | 0.00 | 0.00 | 95 | 1012.1 |
| 20260504130710 | 54 | 191 | 0.0 | 16.5 | 0.00 | 0.00 | 0.00 | 96 | 1011.8 |
| 20260504120209 | 53 | 119 | 7.0 | 10.4 | 0.00 | 0.00 | 0.00 | 97 | 1011.5 |
| 20260504110708 | 53 | 131 | 4.3 | 20.9 | 0.00 | 0.00 | 0.00 | 97 | 1011.1 |
| 20260504110208 | 53 | 188 | 2.6 | 20.9 | 0.00 | 0.00 | 0.00 | 97 | 1011.1 |
| 20260504100208 | 53 | 109 | 18.2 | 19.1 | 0.00 | 0.00 | 0.00 | 96 | 1011.1 |
| 20260504080706 | 54 | 233 | 0.0 | 12.2 | 0.00 | 0.00 | 0.00 | 92 | 1010.2 |
| 20260504080206 | 54 | 146 | 11.3 | 12.2 | 0.00 | 0.00 | 0.00 | 92 | 1010.3 |
| 20260504070235 | 56 | 139 | 2.6 | 12.2 | 0.00 | 0.00 | 0.00 | 86 | 1009.6 |
| 20260504060233 | 57 | 296 | 1.7 | 1.7 | 0.00 | 0.00 | 0.00 | 83 | 1009.0 |
| 20260504050734 | 58 | 313 | 0.0 | 1.7 | 0.00 | 0.00 | 0.00 | 78 | 1009.0 |
| 20260504050232 | 59 | 285 | 0.0 | 1.7 | 0.00 | 0.00 | 0.00 | 78 | 1009.1 |
| 20260504045233 | 59 | 138 | 0.0 | 0.0 | 0.00 | 0.00 | 0.00 | 76 | 1009.0 |
| 20260504044733 | 59 | 265 | 0.0 | 0.0 | 0.00 | 0.00 | 0.00 | 75 | 1009.0 |
| 20260504044232 | 59 | 304 | 0.0 | 0.0 | 0.00 | 0.00 | 0.00 | 74 | 1008.9 |
| 20260504043232 | 60 | 315 | 1.7 | 1.7 | 0.00 | 0.00 | 0.00 | 72 | 1008.8 |
| 20260504042732 | 60 | 319 | 0.0 | 0.0 | 0.00 | 0.00 | 0.00 | 72 | 1008.8 |
| 20260504042232 | 60 | 9 | 0.0 | 1.7 | 0.00 | 0.00 | 0.00 | 71 | 1008.8 |
| 20260504041732 | 60 | 339 | 0.0 | 2.6 | 0.00 | 0.00 | 0.00 | 71 | 1008.9 |
| 20260504041232 | 60 | 338 | 1.7 | 4.3 | 0.00 | 0.00 | 0.00 | 71 | 1009.0 |
| 20260504040732 | 60 | 330 | 4.3 | 4.3 | 0.00 | 0.00 | 0.00 | 72 | 1008.9 |
| 20260504035731 | 59 | 14 | 0.0 | 1.7 | 0.00 | 0.00 | 0.00 | 74 | 1008.8 |
| 20260504035232 | 60 | 293 | 0.0 | 0.0 | 0.00 | 0.00 | 0.00 | 73 | 1008.7 |
| 20260504034232 | 61 | 293 | 0.0 | 0.0 | 0.00 | 0.00 | 0.00 | 70 | 1008.5 |
| 20260504033731 | 61 | 293 | 0.0 | 1.7 | 0.00 | 0.00 | 0.00 | 69 | 1008.5 |
| 20260504033231 | 62 | 285 | 0.0 | 1.7 | 0.00 | 0.00 | 0.00 | 68 | 1008.4 |
| 20260504032231 | 63 | 2 | 1.7 | 4.3 | 0.00 | 0.00 | 0.00 | 66 | 1008.5 |
| 20260504031731 | 63 | 345 | 0.0 | 4.3 | 0.00 | 0.00 | 0.00 | 65 | 1008.5 |
| 20260504031231 | 63 | 325 | 1.7 | 6.1 | 0.00 | 0.00 | 0.00 | 64 | 1008.5 |
| 20260504030732 | 64 | 1 | 5.2 | 6.1 | 0.00 | 0.00 | 0.00 | 63 | 1008.4 |
| 20260504025731 | 65 | 17 | 4.3 | 7.8 | 0.00 | 0.00 | 0.00 | 61 | 1008.4 |
| 20260504025231 | 65 | 29 | 0.0 | 7.8 | 0.00 | 0.00 | 0.00 | 60 | 1008.4 |
| 20260504024230 | 66 | 355 | 4.3 | 8.7 | 0.00 | 0.00 | 0.00 | 59 | 1008.4 |
| 20260504022730 | 66 | 23 | 4.3 | 8.7 | 0.00 | 0.00 | 0.00 | 57 | 1008.5 |
| 20260504021730 | 66 | 333 | 2.6 | 13.0 | 0.00 | 0.00 | 0.00 | 56 | 1008.5 |
| 20260504020730 | 66 | 32 | 4.3 | 20.9 | 0.00 | 0.00 | 0.00 | 56 | 1008.5 |
| 20260504015729 | 65 | 3 | 9.6 | 17.4 | 0.00 | 0.00 | 0.00 | 57 | 1008.5 |
| 20260504015230 | 65 | 349 | 7.0 | 17.4 | 0.00 | 0.00 | 0.00 | 58 | 1008.6 |
| 20260504014730 | 65 | 326 | 2.6 | 12.2 | 0.00 | 0.00 | 0.00 | 62 | 1008.7 |
| 20260504014230 | 64 | 324 | 2.6 | 12.2 | 0.00 | 0.00 | 0.00 | 63 | 1008.8 |
| 20260504013730 | 64 | 346 | 4.3 | 17.4 | 0.00 | 0.00 | 0.00 | 64 | 1008.7 |
| 20260504013230 | 64 | 305 | 7.0 | 17.4 | 0.00 | 0.00 | 0.00 | 64 | 1008.8 |
| 20260504012729 | 65 | 333 | 5.2 | 13.0 | 0.00 | 0.00 | 0.00 | 65 | 1008.6 |
| 20260504012229 | 65 | 345 | 4.3 | 14.8 | 0.00 | 0.00 | 0.00 | 65 | 1008.7 |
| 20260504011230 | 65 | 347 | 5.2 | 19.1 | 0.00 | 0.00 | 0.00 | 65 | 1008.9 |
| 20260504010229 | 65 | 345 | 2.6 | 19.1 | 0.00 | 0.00 | 0.00 | 62 | 1008.9 |
| 20260504005729 | 66 | 350 | 11.3 | 19.1 | 0.00 | 0.00 | 0.00 | 61 | 1008.9 |
| 20260504005229 | 66 | 292 | 2.6 | 17.4 | 0.00 | 0.00 | 0.00 | 60 | 1009.1 |
| 20260504003728 | 66 | 63 | 12.2 | 16.5 | 0.00 | 0.00 | 0.00 | 60 | 1009.0 |
| 20260504002729 | 66 | 339 | 11.3 | 17.4 | 0.00 | 0.00 | 0.00 | 61 | 1009.0 |
| 20260504002228 | 66 | 2 | 8.7 | 26.9 | 0.00 | 0.00 | 0.00 | 61 | 1009.0 |
| 20260504001728 | 66 | 29 | 25.2 | 26.9 | 0.00 | 0.00 | 0.00 | 60 | 1009.0 |
| 20260504001229 | 67 | 360 | 20.9 | 22.6 | 0.00 | 0.00 | 0.00 | 60 | 1009.1 |
| 20260504000728 | 67 | 309 | 2.6 | 19.1 | 0.00 | 0.00 | 0.00 | 62 | 1009.0 |
| 20260503235228 | 67 | 302 | 2.6 | 23.5 | 0.00 | 0.00 | 0.00 | 60 | 1009.1 |
| 20260503234227 | 67 | 360 | 16.5 | 22.6 | 0.00 | 0.00 | 0.00 | 60 | 1009.2 |
| 20260503233227 | 67 | 316 | 8.7 | 17.4 | 0.00 | 0.00 | 0.00 | 59 | 1009.3 |